Find Starlink 31266

NORAD ID: 59087 Int'l Des: 2024-041 Owner: SPXS Country: US Constellation: starlink operational
LEOCIRCULAR

Live Position

Loading 3D Globe...

About Starlink 31266

Description loading...

Upcoming Passes

Passes for default location (London). Set your location on the main map for personalized predictions.

Altitude History

Loading altitude history...

Two-Line Element Set

1 59087U 24041P 26121.13128676 .00004041 00000-0 15629-3 0 9991
2 59087 43.0025 14.3812 0001588 261.6579 98.4092 15.27582370122346
Epoch: May 1, 2026 • Age: 10 hours

Current Status

Altitude 487.0 km
Velocity 7.62 km/s
Sub-Earth Point -20.65°S, 153.87°E
Launch Date Feb 29, 2024
Age 2.1 years
Type internet

Technical Details

Classification Payload
Mass 730.00 kg
Dry Mass 700.00 kg
Total Mass 730.00 kg
Length 0.30 m
Diameter 4.10 m
Span 29.00 m
Shape Box + pan
Manufacturer SPXS
Bus Type Starlink V2M
Phase Status In Orbit
Owner/State SPXS/US

Most Searched